Regional Weather Roundup
Issued by NWS

Home | Current Version | Previous Version | Text Only | Print | Product List | Glossary Off
Versions: 1 2 3 4 5 6 7 8 9 10 11 12 13 14 15 16 17 18 19 20 21 22 23 24 25 26 27 28 29 30 31 32 33 34 35 36 37 38 39 40 41 42 43 44 45 46 47 48 49 50

108
ASUS43 KBIS 230102
RWRND

NORTH DAKOTA REGIONAL WEATHER ROUNDUP
NATIONAL WEATHER SERVICE BISMARCK ND
800 PM CDT SAT APR 22 2017

NOTE: "FAIR" INDICATES FEW OR NO CLOUDS BELOW 12,000 FEET WITH NO
SIGNIFICANT WEATHER AND/OR OBSTRUCTIONS TO VISIBILITY.


NDZ001>003-009>011-017-230200-
NORTHWEST NORTH DAKOTA

CITY           SKY/WX    TMP DP  RH WIND       PRES   REMARKS
WILLISTON      CLOUDY    45  36  70 NE12G18   30.13S
MINOT          CLOUDY    40  34  79 NE13      30.18S
MINOT AFB      LGT RAIN  37  34  87 NE13      30.18S
$$

NDZ018>021-031>035-040>046-230200-
SOUTHWEST NORTH DAKOTA

CITY           SKY/WX    TMP DP  RH WIND       PRES   REMARKS
BISMARCK       MOCLDY    56  43  61 NE20G29   30.06S
DICKINSON      MOCLDY    53  44  71 NE13      30.04F
GARRISON         N/A     42  35  76 E14G22    30.12S
HETTINGER ARPT CLOUDY    59  41  51 SW5       30.06F
$$

NDZ004>008-012>016-024-026-027-054-230200-
NORTHEAST NORTH DAKOTA

CITY           SKY/WX    TMP DP  RH WIND       PRES   REMARKS
GRAND FORKS    CLOUDY    39  30  70 N24       30.20R
GRND FRKS AFB  CLOUDY    36  27  71 NE21G29   30.21R
DEVILS LAKE    FLURRIES  33  28  81 NE17      30.21S
$$

NDZ022-023-025-028>030-036>039-047>053-230200-
SOUTHEAST NORTH DAKOTA

CITY           SKY/WX    TMP DP  RH WIND       PRES   REMARKS
FARGO          CLOUDY    51  39  63 N28G33    30.09R
JAMESTOWN      MOCLDY    45  40  82 NE16G28   30.09R
$$





USA.gov is the U.S. government's official web portal to all federal, state and local government web resources and services.